CW8386 Weather Reports


Display with metric or nautical units.
time (UTC)temp
F
wind
direction
speed
MPH
gust
MPH
rain 1hr
in
rain 24hr
in
rain mn
in
humidity
%
barometer
mb
20260507230621 62 360 14.0 19.0 0.00 0.00 0.00 49 1013.0
20260507230100 62 360 6.0 16.0 0.00 0.00 0.00 49 1012.6
20260507225039 62 360 6.0 14.0 0.00 0.00 0.00 50 1012.5
20260507224557 62 360 7.0 16.0 0.00 0.00 0.00 50 1012.5
20260507224119 62 360 7.0 16.0 0.00 0.00 0.00 49 1012.4
20260507223558 62 360 8.0 16.0 0.00 0.00 0.00 49 1012.5
20260507223118 62 360 6.0 17.0 0.00 0.00 0.00 48 1012.4
20260507222619 62 360 12.0 18.0 0.00 0.00 0.00 49 1012.4
20260507222037 62 360 15.0 19.0 0.00 0.00 0.00 48 1012.5
20260507221538 63 360 13.0 19.0 0.00 0.00 0.00 46 1012.4
20260507221041 64 360 12.0 20.0 0.00 0.00 0.00 44 1012.2
20260507220541 65 360 14.0 20.0 0.00 0.00 0.00 43 1012.1
20260507220123 66 360 12.0 18.0 0.00 0.00 0.00 41 1012.0
20260507215602 66 360 12.0 18.0 0.00 0.00 0.00 40 1012.1
20260507215104 66 360 6.0 16.0 0.00 0.00 0.00 39 1012.3
20260507214604 66 360 9.0 16.0 0.00 0.00 0.00 38 1012.3
20260507214026 67 360 3.0 12.0 0.00 0.00 0.00 36 1012.4
20260507213526 67 360 4.0 13.0 0.00 0.00 0.00 37 1012.4
20260507213027 67 360 6.0 11.0 0.00 0.00 0.00 37 1011.5
20260507212549 67 360 4.0 12.0 0.00 0.00 0.00 36 1011.6
20260507212050 66 360 3.0 18.0 0.00 0.00 0.00 37 1011.7
20260507211529 66 360 7.0 18.0 0.00 0.00 0.00 37 1011.8
20260507211052 66 360 5.0 14.0 0.00 0.00 0.00 35 1012.0
20260507210551 66 360 7.0 14.0 0.00 0.00 0.00 36 1012.0
20260507210035 67 360 8.0 14.0 0.00 0.00 0.00 36 1012.0
20260507205613 67 360 0.0 13.0 0.00 0.00 0.00 36 1012.0
20260507205037 67 360 5.0 13.0 0.00 0.00 0.00 36 1011.9
20260507204538 67 360 6.0 13.0 0.00 0.00 0.00 35 1012.0
20260507204039 67 360 3.0 13.0 0.00 0.00 0.00 35 1012.0
20260507203539 66 360 1.0 13.0 0.00 0.00 0.00 36 1012.0
20260507203041 67 360 5.0 13.0 0.00 0.00 0.00 35 1012.0
20260507202540 67 360 5.0 15.0 0.00 0.00 0.00 35 1011.8
20260507202041 67 360 9.0 15.0 0.00 0.00 0.00 37 1011.8
20260507201623 66 360 5.0 15.0 0.00 0.00 0.00 36 1011.7
20260507201124 66 360 6.0 15.0 0.00 0.00 0.00 37 1011.6
20260507200623 66 360 7.0 14.0 0.00 0.00 0.00 37 1011.7
20260507200041 66 360 7.0 13.0 0.00 0.00 0.00 37 1011.7
20260507195623 66 360 6.0 15.0 0.00 0.00 0.00 36 1011.9
20260507195042 66 360 9.0 14.0 0.00 0.00 0.00 36 1011.8
20260507194543 66 360 9.0 14.0 0.00 0.00 0.00 36 1011.9
20260507194045 66 360 8.0 14.0 0.00 0.00 0.00 35 1011.9
20260507193525 66 360 2.0 14.0 0.00 0.00 0.00 35 1012.1
20260507193025 66 360 5.0 14.0 0.00 0.00 0.00 34 1012.2
20260507192547 66 360 7.0 14.0 0.00 0.00 0.00 34 1012.1
20260507192028 67 360 5.0 15.0 0.00 0.00 0.00 34 1012.1
20260507191529 67 360 5.0 15.0 0.00 0.00 0.00 34 1012.2
20260507191031 66 360 3.0 16.0 0.00 0.00 0.00 35 1012.1
20260507190611 66 360 9.0 16.0 0.00 0.00 0.00 35 1012.2
20260507190031 67 360 3.0 13.0 0.00 0.00 0.00 34 1012.3
20260507185531 66 360 7.0 13.0 0.00 0.00 0.00 36 1012.3
20260507185032 67 360 3.0 12.0 0.00 0.00 0.00 35 1012.3
20260507184537 67 360 7.0 11.0 0.00 0.00 0.00 35 1012.2
20260507184039 67 360 4.0 10.0 0.00 0.00 0.00 36 1012.2
20260507183539 66 360 0.0 9.0 0.00 0.00 0.00 36 1012.3
20260507183039 66 360 2.0 9.0 0.00 0.00 0.00 36 1012.5
20260507182540 66 360 1.0 4.0 0.00 0.00 0.00 36 1012.6
20260507182043 66 360 0.0 0.0 0.00 0.00 0.00 35 1012.6
20260507181543 66 360 0.0 0.0 0.00 0.00 0.00 36 1012.7
20260507181025 65 360 0.0 0.0 0.00 0.00 0.00 37 1012.8
20260507180526 65 360 0.0 0.0 0.00 0.00 0.00 37 1013.0
20260507180108 64 360 0.0 4.0 0.00 0.00 0.00 37 1013.1
20260507175526 65 360 0.0 4.0 0.00 0.00 0.00 36 1013.1
20260507175027 65 360 0.0 0.0 0.00 0.00 0.00 37 1013.2
20260507174528 65 360 0.0 0.0 0.00 0.00 0.00 38 1013.1
20260507174030 64 360 0.0 0.0 0.00 0.00 0.00 37 1012.4
20260507173534 64 360 0.0 0.0 0.00 0.00 0.00 37 1012.5
20260507173035 63 360 0.0 4.0 0.00 0.00 0.00 37 1012.7
20260507172536 63 360 0.0 4.0 0.00 0.00 0.00 37 1012.7
20260507172036 63 360 1.0 4.0 0.00 0.00 0.00 37 1012.9
20260507171619 62 360 0.0 7.0 0.00 0.00 0.00 37 1012.9
20260507171038 62 360 1.0 7.0 0.00 0.00 0.00 37 1013.0
20260507170559 62 360 0.0 9.0 0.00 0.00 0.00 37 1013.0
20260507170040 62 360 0.0 9.0 0.00 0.00 0.00 37 1013.1
20260507165541 62 360 1.0 7.0 0.00 0.00 0.00 37 1013.3
20260507165042 61 360 0.0 7.0 0.00 0.00 0.00 38 1013.4
20260507164604 61 360 0.0 7.0 0.00 0.00 0.00 37 1013.6
20260507164025 60 360 0.0 6.0 0.00 0.00 0.00 37 1013.6
20260507163525 61 360 3.0 9.0 0.00 0.00 0.00 37 1013.8
20260507163026 60 360 4.0 11.0 0.00 0.00 0.00 37 1013.9
20260507162026 61 360 0.0 0.0 0.00 0.00 0.00 38 1013.9
20260507161048 60 360 0.0 0.0 0.00 0.00 0.00 38 1013.9
20260507160608 59 360 0.0 0.0 0.00 0.00 0.00 38 1014.0
20260507160028 59 360 0.0 0.0 0.00 0.00 0.00 37 1014.0
20260507155529 59 360 0.0 0.0 0.00 0.00 0.00 38 1014.0
20260507154611 59 360 0.0 0.0 0.00 0.00 0.00 37 1014.0
20260507154052 58 360 0.0 0.0 0.00 0.00 0.00 37 1014.1
20260507153611 58 360 0.0 0.0 0.00 0.00 0.00 37 1014.2
20260507153032 58 360 0.0 0.0 0.00 0.00 0.00 37 1014.2
20260507152553 58 360 0.0 0.0 0.00 0.00 0.00 37 1014.2
20260507152033 57 360 0.0 0.0 0.00 0.00 0.00 37 1014.2
20260507151555 56 360 0.0 0.0 0.00 0.00 0.00 37 1014.3
20260507151056 56 360 0.0 0.0 0.00 0.00 0.00 38 1014.3
20260507150615 56 360 0.0 0.0 0.00 0.01 0.00 37 1014.5
20260507150116 55 360 0.0 0.0 0.00 0.01 0.00 36 1014.5
20260507145536 54 360 0.0 0.0 0.00 0.01 0.00 36 1014.6
20260507145119 54 360 0.0 0.0 0.00 0.01 0.00 34 1014.6
20260507144559 55 360 0.0 0.0 0.00 0.01 0.00 34 1013.9
20260507143538 54 360 0.0 0.0 0.00 0.01 0.00 34 1014.1
20260507142559 54 360 0.0 0.0 0.00 0.01 0.00 34 1014.1
20260507142100 53 360 0.0 0.0 0.00 0.01 0.00 34 1014.3
20260507141601 53 360 0.0 0.0 0.00 0.01 0.00 35 1014.3
20260507141123 52 360 0.0 8.0 0.00 0.01 0.00 35 1014.4
20260507140541 51 360 4.0 8.0 0.00 0.02 0.00 36 1014.6
20260507135037 51 360 1.0 5.0 0.00 0.02 0.00 38 1014.9
20260507134559 51 360 3.0 5.0 0.00 0.02 0.00 40 1014.9
20260507134059 51 360 0.0 1.0 0.00 0.02 0.00 41 1015.0
20260507133558 50 360 0.0 0.0 0.00 0.02 0.00 41 1014.8
20260507133059 50 360 0.0 0.0 0.00 0.02 0.00 41 1014.6
20260507132523 49 360 0.0 0.0 0.00 0.02 0.00 43 1014.5
20260507132025 49 360 0.0 1.0 0.00 0.02 0.00 44 1014.3
20260507131607 49 360 0.0 1.0 0.00 0.02 0.00 44 1014.5
20260507131125 50 360 0.0 1.0 0.00 0.02 0.00 42 1014.8
20260507130623 49 360 0.0 0.0 0.00 0.02 0.00 42 1014.7
20260507125622 50 360 0.0 4.0 0.00 0.02 0.00 43 1014.5
20260507125042 50 360 0.0 7.0 0.00 0.02 0.00 42 1014.4
20260507124603 50 360 0.0 11.0 0.00 0.02 0.00 42 1014.3
20260507124105 51 360 3.0 13.0 0.00 0.02 0.00 45 1014.4
20260507123524 51 360 8.0 15.0 0.00 0.02 0.00 48 1014.4
20260507123046 50 360 11.0 15.0 0.00 0.02 0.00 49 1014.3
20260507122607 50 360 8.0 12.0 0.00 0.02 0.00 50 1014.3
20260507122025 51 360 9.0 13.0 0.00 0.02 0.00 50 1014.3
20260507121547 51 360 5.0 13.0 0.00 0.02 0.00 51 1014.4
20260507121049 50 360 9.0 12.0 0.00 0.02 0.00 52 1014.5
20260507120048 49 360 0.0 5.0 0.00 0.02 0.00 55 1014.5
20260507115528 49 360 0.0 4.0 0.00 0.02 0.00 55 1014.4
20260507115029 49 360 0.0 5.0 0.00 0.02 0.00 56 1014.4
20260507114529 49 360 3.0 5.0 0.00 0.02 0.00 55 1014.4
20260507114053 49 360 0.0 0.0 0.00 0.02 0.00 52 1014.4
20260507113532 49 360 0.0 5.0 0.00 0.02 0.00 51 1014.4
20260507113037 49 360 3.0 5.0 0.00 0.02 0.00 51 1014.4
20260507112034 49 360 0.0 3.0 0.00 0.02 0.00 50 1014.4
20260507111616 50 360 1.0 3.0 0.00 0.02 0.00 51 1014.3
20260507111117 50 360 0.0 4.0 0.00 0.02 0.00 53 1014.5
20260507110534 50 360 0.0 6.0 0.00 0.02 0.00 54 1014.4
20260507110036 50 360 4.0 7.0 0.00 0.02 0.00 54 1013.7
20260507105618 50 360 0.0 7.0 0.00 0.02 0.00 54 1013.7
20260507104535 49 360 0.0 9.0 0.00 0.02 0.00 55 1013.7
20260507104038 48 360 5.0 10.0 0.00 0.02 0.00 54 1013.8
20260507103538 48 360 6.0 10.0 0.00 0.02 0.00 55 1013.7
20260507103043 48 360 1.0 4.0 0.00 0.02 0.00 53 1013.6
20260507102543 48 360 0.0 11.0 0.00 0.02 0.00 54 1013.6
20260507102106 48 360 3.0 11.0 0.00 0.02 0.00 54 1013.7
20260507101525 48 360 0.0 5.0 0.00 0.02 0.00 51 1013.3
20260507101027 48 360 0.0 12.0 0.00 0.02 0.00 51 1013.4
20260507100547 47 360 4.0 12.0 0.00 0.02 0.00 52 1013.4
20260507100047 47 360 5.0 8.0 0.00 0.02 0.00 53 1013.4
20260507095526 47 360 3.0 11.0 0.00 0.02 0.00 53 1013.4
20260507095029 47 360 7.0 11.0 0.00 0.02 0.00 54 1013.4
20260507094531 47 360 0.0 4.0 0.00 0.02 0.00 50 1013.6
20260507094053 47 360 0.0 6.0 0.00 0.02 0.00 51 1013.4
20260507093532 47 360 0.0 6.0 0.00 0.02 0.00 50 1013.5
20260507093053 48 360 2.0 6.0 0.00 0.02 0.00 48 1013.7
20260507092533 47 360 4.0 6.0 0.00 0.02 0.00 48 1013.7
20260507091533 47 360 0.0 0.0 0.00 0.02 0.00 47 1013.6
20260507091035 47 360 0.0 7.0 0.00 0.02 0.00 49 1013.5
20260507090535 47 360 2.0 7.0 0.00 0.02 0.00 50 1013.5
20260507090057 47 360 0.0 4.0 0.00 0.02 0.00 49 1013.4
20260507085618 47 360 1.0 5.0 0.00 0.02 0.00 49 1013.7
20260507085118 47 360 3.0 5.0 0.00 0.02 0.00 49 1013.7
20260507084058 46 360 3.0 5.0 0.00 0.02 0.00 50 1013.9
20260507083537 46 360 0.0 3.0 0.00 0.02 0.00 51 1013.5
20260507083058 47 360 0.0 0.0 0.00 0.02 0.00 49 1013.5
20260507082619 47 360 0.0 0.0 0.00 0.02 0.00 49 1013.5
20260507082119 47 360 0.0 2.0 0.00 0.02 0.00 47 1013.4
20260507081538 47 360 1.0 5.0 0.00 0.02 0.00 47 1013.6
20260507081121 47 360 0.0 5.0 0.00 0.02 0.00 47 1013.5
20260507080559 48 360 4.0 5.0 0.00 0.02 0.00 46 1013.5
20260507080100 48 360 0.0 0.0 0.00 0.02 0.00 46 1013.5
20260507075039 48 360 0.0 0.0 0.00 0.02 0.00 45 1013.6
20260507074541 48 360 0.0 0.0 0.00 0.02 0.00 45 1013.6
20260507074043 48 360 0.0 0.0 0.00 0.02 0.00 45 1013.7
20260507073604 48 360 0.0 4.0 0.00 0.02 0.00 45 1013.8
20260507073124 48 360 0.0 6.0 0.00 0.02 0.00 46 1013.8
20260507072624 47 360 3.0 6.0 0.00 0.02 0.00 46 1013.9
20260507072024 47 360 3.0 4.0 0.00 0.02 0.00 47 1013.9
20260507071546 46 360 0.0 4.0 0.00 0.02 0.00 47 1013.7
20260507071027 46 360 2.0 4.0 0.00 0.02 0.00 48 1012.7
20260507070527 46 360 2.0 4.0 0.00 0.02 0.00 48 1012.6
20260507070048 46 360 0.0 0.0 0.00 0.02 0.00 49 1012.6
20260507065529 46 360 0.0 0.0 0.00 0.02 0.00 50 1012.5
20260507065031 46 360 0.0 0.0 0.00 0.02 0.00 49 1012.5
20260507064553 46 360 0.0 0.0 0.00 0.02 0.00 49 1012.5
20260507064055 46 360 0.0 0.0 0.00 0.02 0.00 48 1012.5
20260507063554 45 360 0.0 0.0 0.00 0.02 0.00 48 1012.4
20260507063035 45 360 0.0 0.0 0.00 0.02 0.00 48 1012.5
20260507062556 45 360 0.0 0.0 0.00 0.02 0.00 49 1012.5
20260507062056 45 360 0.0 4.0 0.00 0.02 0.00 48 1012.4
20260507061537 46 360 2.0 4.0 0.00 0.02 0.00 47 1012.5
20260507061039 46 360 0.0 0.0 0.00 0.02 0.00 46 1012.4
20260507060600 46 360 0.0 4.0 0.00 0.02 0.02 46 1012.4
20260507060024 47 360 1.0 4.0 0.00 0.02 0.02 46 1012.4
20260507055622 47 360 0.0 5.0 0.00 0.02 0.02 44 1012.2
20260507055121 48 360 1.0 5.0 0.00 0.02 0.02 45 1012.4
20260507054524 48 360 0.0 2.0 0.00 0.02 0.02 44 1012.4
20260507054047 49 360 0.0 2.0 0.00 0.02 0.02 43 1012.4
20260507053526 49 360 0.0 0.0 0.00 0.02 0.02 43 1012.4
20260507053048 50 360 0.0 4.0 0.00 0.02 0.02 43 1012.4
20260507052528 50 360 1.0 4.0 0.00 0.02 0.02 42 1012.2
20260507052029 51 360 1.0 9.0 0.00 0.02 0.02 41 1012.3
20260507051550 51 360 3.0 11.0 0.00 0.02 0.02 40 1012.2
20260507051112 50 360 3.0 11.0 0.00 0.02 0.02 41 1012.3
20260507050551 50 360 0.0 4.0 0.00 0.02 0.02 40 1012.3
20260507050051 50 360 3.0 5.0 0.00 0.02 0.02 41 1012.2
20260507045531 49 360 1.0 5.0 0.00 0.02 0.02 41 1012.2
20260507045032 49 360 1.0 4.0 0.00 0.02 0.02 41 1012.3
20260507044613 49 360 2.0 4.0 0.00 0.02 0.02 41 1012.3
20260507044033 50 360 0.0 1.0 0.00 0.02 0.02 40 1012.2
20260507043554 50 360 0.0 3.0 0.00 0.02 0.02 40 1012.3
20260507043055 50 360 1.0 5.0 0.00 0.02 0.02 40 1012.2
20260507042555 50 360 2.0 5.0 0.00 0.02 0.02 40 1012.2
20260507042035 50 360 0.0 9.0 0.00 0.02 0.02 40 1012.2
20260507041617 50 360 3.0 9.0 0.00 0.02 0.02 40 1012.2
20260507041119 50 360 0.0 7.0 0.00 0.02 0.02 39 1012.2
20260507040557 51 360 0.0 7.0 0.00 0.02 0.02 38 1012.3
20260507040039 52 360 0.0 0.0 0.00 0.02 0.02 39 1012.3
20260507035540 52 360 0.0 0.0 0.00 0.02 0.02 39 1012.4
20260507035121 52 360 0.0 0.0 0.00 0.02 0.02 39 1012.3
20260507034540 52 360 0.0 0.0 0.00 0.02 0.02 38 1012.3
20260507034043 52 360 0.0 0.0 0.00 0.02 0.02 38 1012.4
20260507033603 52 360 0.0 0.0 0.00 0.02 0.02 38 1012.4
20260507032541 52 360 0.0 3.0 0.00 0.02 0.02 37 1012.3
20260507032103 53 360 0.0 3.0 0.00 0.02 0.02 38 1012.3
20260507031604 53 360 0.0 0.0 0.00 0.02 0.02 37 1012.3
20260507031046 54 360 0.0 1.0 0.00 0.02 0.02 35 1012.3
20260507030545 55 360 0.0 4.0 0.00 0.02 0.02 34 1012.3
20260507030027 55 360 0.0 4.0 0.00 0.02 0.02 34 1012.2
20260507025527 56 360 0.0 2.0 0.00 0.02 0.02 34 1012.2
20260507025049 56 360 0.0 4.0 0.00 0.02 0.02 34 1012.1
20260507024529 56 360 1.0 4.0 0.00 0.02 0.02 34 1012.1
20260507024030 56 360 0.0 2.0 0.00 0.02 0.02 33 1012.2
20260507023550 56 360 1.0 5.0 0.00 0.02 0.02 33 1012.2
20260507023031 56 360 0.0 5.0 0.00 0.02 0.02 33 1012.2
20260507022551 56 360 0.0 3.0 0.00 0.02 0.02 32 1012.2
20260507022031 57 360 0.0 9.0 0.00 0.02 0.02 32 1012.2
20260507021553 57 360 2.0 9.0 0.00 0.02 0.02 32 1012.2
20260507021038 57 360 3.0 9.0 0.00 0.02 0.02 32 1012.3
20260507020538 57 360 2.0 11.0 0.00 0.02 0.02 32 1012.4
20260507020041 57 360 2.0 11.0 0.00 0.02 0.02 32 1012.5
20260507015543 57 360 4.0 9.0 0.00 0.02 0.02 31 1012.5
20260507015124 58 360 5.0 12.0 0.00 0.02 0.02 31 1012.5
20260507014545 58 360 7.0 12.0 0.00 0.02 0.02 30 1011.8
20260507014127 58 360 0.0 10.0 0.00 0.02 0.02 31 1011.8
20260507013604 58 360 5.0 12.0 0.00 0.02 0.02 30 1011.9
20260507013024 58 360 3.0 13.0 0.00 0.02 0.02 30 1011.9
20260507012526 59 360 4.0 13.0 0.00 0.02 0.02 30 1011.9
20260507012026 59 360 4.0 10.0 0.00 0.02 0.02 30 1012.0
20260507011527 59 360 4.0 13.0 0.00 0.02 0.02 30 1012.1
20260507011029 59 360 7.0 13.0 0.00 0.02 0.02 29 1012.2
20260507010049 59 360 2.0 15.0 0.00 0.03 0.02 29 1012.2
20260507005529 59 360 8.0 15.0 0.00 0.03 0.02 29 1012.3
20260507005051 59 360 7.0 11.0 0.00 0.03 0.02 29 1012.3
20260507004551 60 360 3.0 11.0 0.00 0.03 0.02 29 1012.4
20260507004113 59 360 8.0 11.0 0.00 0.03 0.02 29 1012.4
20260507003530 60 360 2.0 12.0 0.00 0.03 0.02 29 1012.4
20260507003052 60 360 6.0 12.0 0.00 0.03 0.02 28 1012.5
20260507002613 60 360 0.0 6.0 0.00 0.03 0.02 28 1012.6
20260507002054 60 360 0.0 7.0 0.00 0.03 0.02 28 1012.6
20260507001533 60 360 0.0 12.0 0.00 0.03 0.02 29 1012.7
20260507001035 60 360 0.0 12.0 0.00 0.03 0.02 28 1012.8
20260507000556 60 360 2.0 11.0 0.00 0.03 0.02 29 1012.8
20260507000036 60 360 0.0 7.0 0.00 0.03 0.02 29 1012.8
20260506235537 60 360 0.0 7.0 0.00 0.03 0.02 28 1012.9
20260506235059 60 360 0.0 6.0 0.00 0.03 0.02 28 1012.9
20260506234540 60 360 0.0 10.0 0.00 0.03 0.02 27 1013.0
20260506234043 60 360 1.0 10.0 0.00 0.03 0.02 28 1013.2
20260506233603 60 360 1.0 5.0 0.00 0.03 0.02 27 1013.1
20260506233026 60 360 0.0 4.0 0.00 0.03 0.02 26 1013.2
20260506232527 60 360 0.0 0.0 0.00 0.03 0.02 26 1013.3
20260506232048 59 360 0.0 0.0 0.00 0.03 0.02 26 1013.3
20260506231528 58 360 0.0 0.0 0.00 0.03 0.02 25 1013.5
20260506231110 58 360 0.0 4.0 0.00 0.03 0.02 25 1013.6